| time (UTC) | temp F | wind direction | speed MPH | gust MPH | rain 1hr in | rain 24hr in | rain mn in | humidity % | barometer mb |
| 20260906020837 | 56 | 326 | 8.0 | 10.0 | 0.00 | 0.00 | 0.00 | 91 | 1021.0 |
| 20260906020337 | 56 | 329 | 6.0 | 6.0 | 0.00 | 0.00 | 0.00 | 91 | 1021.0 |
| 20260906015837 | 56 | 332 | 6.0 | 14.0 | 0.00 | 0.00 | 0.00 | 91 | 1021.0 |
| 20260906015337 | 56 | 323 | 4.0 | 6.0 | 0.00 | 0.00 | 0.00 | 92 | 1021.0 |
| 20260906014837 | 56 | 329 | 7.0 | 11.0 | 0.00 | 0.00 | 0.00 | 92 | 1021.0 |
| 20260906014337 | 56 | 317 | 6.0 | 10.0 | 0.00 | 0.00 | 0.00 | 92 | 1021.0 |
| 20260906013837 | 56 | 306 | 4.0 | 5.0 | 0.00 | 0.00 | 0.00 | 92 | 1021.0 |
| 20260906013337 | 56 | 305 | 6.0 | 7.0 | 0.00 | 0.00 | 0.00 | 92 | 1021.0 |
| 20260906012837 | 56 | 317 | 6.0 | 8.0 | 0.00 | 0.00 | 0.00 | 92 | 1021.0 |
| 20260906012337 | 56 | 312 | 7.0 | 10.0 | 0.00 | 0.00 | 0.00 | 92 | 1021.0 |
| 20260906011837 | 56 | 280 | 7.0 | 8.0 | 0.00 | 0.00 | 0.00 | 92 | 1021.0 |
| 20260906011337 | 56 | 291 | 6.0 | 6.0 | 0.00 | 0.00 | 0.00 | 92 | 1021.0 |
| 20260906010837 | 57 | 306 | 4.0 | 9.0 | 0.00 | 0.00 | 0.00 | 92 | 1021.0 |
| 20260906010337 | 57 | 326 | 5.0 | 6.0 | 0.00 | 0.00 | 0.00 | 92 | 1021.0 |
| 20260906005837 | 57 | 329 | 10.0 | 13.0 | 0.00 | 0.00 | 0.00 | 92 | 1021.0 |
| 20260906005337 | 57 | 313 | 3.0 | 10.0 | 0.00 | 0.00 | 0.00 | 92 | 1021.0 |
| 20260906004837 | 57 | 299 | 7.0 | 10.0 | 0.00 | 0.00 | 0.00 | 92 | 1020.7 |
| 20260906004337 | 57 | 280 | 7.0 | 11.0 | 0.00 | 0.00 | 0.00 | 92 | 1020.7 |
| 20260906003837 | 57 | 299 | 9.0 | 14.0 | 0.00 | 0.00 | 0.00 | 92 | 1020.7 |
| 20260906003337 | 57 | 290 | 5.0 | 6.0 | 0.00 | 0.00 | 0.00 | 93 | 1020.7 |
| 20260906002837 | 57 | 328 | 6.0 | 9.0 | 0.00 | 0.00 | 0.00 | 93 | 1020.7 |
| 20260906002337 | 57 | 313 | 4.0 | 8.0 | 0.00 | 0.00 | 0.00 | 94 | 1020.7 |
| 20260906001837 | 57 | 294 | 6.0 | 7.0 | 0.00 | 0.00 | 0.00 | 93 | 1020.7 |
| 20260906001337 | 57 | 311 | 7.0 | 8.0 | 0.00 | 0.00 | 0.00 | 93 | 1020.7 |
| 20260906000837 | 57 | 318 | 4.0 | 6.0 | 0.00 | 0.00 | 0.00 | 92 | 1020.7 |
| 20260906000337 | 57 | 321 | 5.0 | 6.0 | 0.00 | 0.00 | 0.00 | 93 | 1020.7 |
| 20260905235837 | 57 | 307 | 12.0 | 17.0 | 0.00 | 0.00 | 0.00 | 92 | 1020.7 |
| 20260905235337 | 57 | 336 | 9.0 | 10.0 | 0.00 | 0.00 | 0.00 | 92 | 1020.7 |
| 20260905234836 | 57 | 348 | 7.0 | 9.0 | 0.00 | 0.00 | 0.00 | 93 | 1020.7 |
| 20260905234337 | 57 | 331 | 3.0 | 4.0 | 0.00 | 0.00 | 0.00 | 93 | 1020.7 |
| 20260905233837 | 57 | 318 | 7.0 | 7.0 | 0.00 | 0.00 | 0.00 | 93 | 1020.7 |
| 20260905233337 | 57 | 303 | 7.0 | 10.0 | 0.00 | 0.00 | 0.00 | 93 | 1020.7 |
| 20260905232837 | 57 | 298 | 5.0 | 6.0 | 0.00 | 0.00 | 0.00 | 92 | 1020.7 |
| 20260905232337 | 57 | 328 | 6.0 | 9.0 | 0.00 | 0.00 | 0.00 | 92 | 1020.7 |
| 20260905231836 | 57 | 275 | 5.0 | 7.0 | 0.00 | 0.00 | 0.00 | 92 | 1020.7 |
| 20260905231337 | 57 | 284 | 6.0 | 7.0 | 0.00 | 0.00 | 0.00 | 92 | 1020.3 |
| 20260905230837 | 57 | 288 | 8.0 | 10.0 | 0.00 | 0.00 | 0.00 | 92 | 1020.3 |
| 20260905230337 | 56 | 287 | 7.0 | 9.0 | 0.00 | 0.00 | 0.00 | 93 | 1020.3 |
| 20260905225836 | 56 | 288 | 7.0 | 7.0 | 0.00 | 0.00 | 0.00 | 94 | 1020.3 |
| 20260905225336 | 56 | 310 | 4.0 | 7.0 | 0.00 | 0.00 | 0.00 | 95 | 1020.3 |
| 20260905224836 | 56 | 285 | 3.0 | 8.0 | 0.00 | 0.00 | 0.00 | 95 | 1020.3 |
| 20260905224338 | 56 | 313 | 5.0 | 6.0 | 0.00 | 0.00 | 0.00 | 94 | 1020.3 |
| 20260905223836 | 56 | 321 | 3.0 | 4.0 | 0.00 | 0.00 | 0.00 | 94 | 1020.3 |
| 20260905223336 | 56 | 323 | 3.0 | 4.0 | 0.00 | 0.00 | 0.00 | 94 | 1020.3 |
| 20260905222837 | 56 | 305 | 8.0 | 13.0 | 0.00 | 0.00 | 0.00 | 94 | 1020.3 |
| 20260905222337 | 56 | 312 | 6.0 | 6.0 | 0.00 | 0.00 | 0.00 | 94 | 1020.3 |
| 20260905221836 | 56 | 300 | 5.0 | 7.0 | 0.00 | 0.00 | 0.00 | 94 | 1020.3 |
| 20260905221336 | 56 | 309 | 6.0 | 10.0 | 0.00 | 0.00 | 0.00 | 94 | 1020.3 |
| 20260905220836 | 56 | 304 | 4.0 | 4.0 | 0.00 | 0.00 | 0.00 | 95 | 1020.3 |
| 20260905220336 | 56 | 270 | 4.0 | 4.0 | 0.00 | 0.00 | 0.09 | 94 | 1020.3 |
| 20260905215836 | 56 | 301 | 7.0 | 12.0 | 0.00 | 0.00 | 0.09 | 95 | 1020.3 |
| 20260905215336 | 56 | 292 | 2.0 | 4.0 | 0.00 | 0.00 | 0.09 | 95 | 1020.3 |
| 20260905214837 | 56 | 313 | 3.0 | 6.0 | 0.00 | 0.00 | 0.09 | 95 | 1020.0 |
| 20260905214337 | 56 | 297 | 3.0 | 5.0 | 0.00 | 0.00 | 0.09 | 95 | 1020.0 |
| 20260905213836 | 56 | 282 | 4.0 | 6.0 | 0.00 | 0.00 | 0.09 | 95 | 1020.0 |
| 20260905213337 | 56 | 282 | 2.0 | 5.0 | 0.00 | 0.00 | 0.09 | 94 | 1020.0 |
| 20260905212836 | 56 | 277 | 3.0 | 6.0 | 0.00 | 0.00 | 0.09 | 94 | 1020.0 |
| 20260905212336 | 56 | 321 | 0.0 | 1.0 | 0.00 | 0.00 | 0.09 | 94 | 1020.0 |
| 20260905211836 | 56 | 328 | 4.0 | 6.0 | 0.00 | 0.00 | 0.09 | 93 | 1020.0 |
| 20260905211336 | 56 | 317 | 4.0 | 6.0 | 0.05 | 0.00 | 0.09 | 93 | 1020.0 |
| 20260905210836 | 56 | 333 | 10.0 | 11.0 | 0.05 | 0.00 | 0.09 | 92 | 1020.0 |
| 20260905210336 | 56 | 335 | 5.0 | 6.0 | 0.05 | 0.00 | 0.07 | 92 | 1020.0 |
| 20260905205836 | 56 | 333 | 4.0 | 6.0 | 0.05 | 0.00 | 0.07 | 92 | 1020.3 |
| 20260905205336 | 57 | 335 | 5.0 | 8.0 | 0.05 | 0.00 | 0.07 | 91 | 1020.3 |
| 20260905204836 | 57 | 358 | 6.0 | 6.0 | 0.05 | 0.00 | 0.07 | 88 | 1020.7 |
| 20260905204542 | 57 | 358 | 6.0 | 6.0 | 0.05 | 0.00 | 0.07 | 88 | 1020.7 |
| 20260905204426 | 58 | 356 | 11.0 | 16.0 | 0.00 | 0.00 | 0.07 | 83 | 1020.7 |
| 20260905204244 | 58 | 356 | 11.0 | 16.0 | 0.00 | 0.00 | 0.07 | 83 | 1020.7 |
| 20260905203744 | 59 | 339 | 7.0 | 9.0 | 0.00 | 0.00 | 0.07 | 79 | 1020.3 |
| 20260905203713 | 59 | 339 | 7.0 | 9.0 | 0.00 | 0.00 | 0.07 | 79 | 1020.3 |
| 20260905203654 | 59 | 339 | 7.0 | 9.0 | 0.00 | 0.00 | 0.07 | 79 | 1020.3 |
| 20260905203154 | 60 | 321 | 15.0 | 16.0 | 0.00 | 0.00 | 0.07 | 75 | 1020.3 |
| 20260905202654 | 61 | 31 | 15.0 | 20.0 | 0.05 | 0.00 | 0.07 | 70 | 1020.3 |
| 20260905202154 | 62 | 304 | 13.0 | 14.0 | 0.05 | 0.00 | 0.07 | 65 | 1019.6 |
| 20260905201654 | 64 | 314 | 15.0 | 17.0 | 0.00 | 0.00 | 0.05 | 59 | 1019.6 |
| 20260905201154 | 64 | 296 | 6.0 | 11.0 | 0.00 | 0.00 | 0.05 | 59 | 1019.3 |
| 20260905200654 | 64 | 321 | 5.0 | 10.0 | 0.00 | 0.00 | 0.05 | 60 | 1019.3 |
| 20260905200154 | 63 | 318 | 2.0 | 4.0 | 0.00 | 0.00 | 0.05 | 61 | 1019.3 |
| 20260905195654 | 63 | 293 | 1.0 | 3.0 | 0.00 | 0.00 | 0.05 | 62 | 1019.3 |
| 20260905195154 | 63 | 333 | 3.0 | 4.0 | 0.00 | 0.00 | 0.05 | 64 | 1019.3 |
| 20260905194654 | 62 | 315 | 2.0 | 4.0 | 0.00 | 0.00 | 0.05 | 64 | 1019.0 |
| 20260905194154 | 62 | 304 | 4.0 | 4.0 | 0.00 | 0.00 | 0.05 | 64 | 1019.0 |
| 20260905193654 | 62 | 323 | 1.0 | 1.0 | 0.00 | 0.00 | 0.05 | 65 | 1019.0 |
| 20260905193154 | 62 | 298 | 4.0 | 5.0 | 0.00 | 0.00 | 0.05 | 65 | 1019.0 |
| 20260905192654 | 62 | 315 | 3.0 | 4.0 | 0.00 | 0.00 | 0.05 | 65 | 1019.0 |
| 20260905192154 | 62 | 291 | 3.0 | 4.0 | 0.00 | 0.00 | 0.05 | 65 | 1019.0 |
| 20260905191654 | 62 | 312 | 3.0 | 5.0 | 0.00 | 0.00 | 0.05 | 66 | 1019.0 |
| 20260905191154 | 62 | 303 | 4.0 | 6.0 | 0.00 | 0.00 | 0.05 | 65 | 1019.0 |
| 20260905190654 | 62 | 316 | 3.0 | 3.0 | 0.00 | 0.00 | 0.05 | 66 | 1019.0 |
| 20260905190154 | 62 | 315 | 1.0 | 2.0 | 0.00 | 0.00 | 0.05 | 67 | 1019.0 |
| 20260905185654 | 62 | 335 | 6.0 | 6.0 | 0.00 | 0.00 | 0.05 | 69 | 1018.3 |
| 20260905185154 | 61 | 322 | 1.0 | 1.0 | 0.00 | 0.00 | 0.05 | 71 | 1018.3 |
| 20260905184654 | 61 | 320 | 0.0 | 0.0 | 0.00 | 0.00 | 0.05 | 70 | 1018.3 |
| 20260905184154 | 62 | 325 | 1.0 | 1.0 | 0.00 | 0.00 | 0.05 | 70 | 1018.3 |
| 20260905183654 | 62 | 318 | 0.0 | 1.0 | 0.00 | 0.00 | 0.05 | 68 | 1018.0 |
| 20260905183154 | 63 | 322 | 0.0 | 0.0 | 0.00 | 0.00 | 0.05 | 65 | 1018.0 |
| 20260905182654 | 64 | 315 | 0.0 | 1.0 | 0.00 | 0.00 | 0.05 | 65 | 1018.0 |
| 20260905182154 | 64 | 319 | 0.0 | 0.0 | 0.00 | 0.00 | 0.05 | 64 | 1018.0 |
| 20260905181654 | 65 | 303 | 2.0 | 4.0 | 0.00 | 0.00 | 0.05 | 61 | 1018.0 |
| 20260905181154 | 65 | 315 | 3.0 | 4.0 | 0.00 | 0.00 | 0.05 | 60 | 1018.0 |
| 20260905180654 | 65 | 309 | 4.0 | 6.0 | 0.00 | 0.00 | 0.05 | 59 | 1018.0 |
| 20260905180154 | 65 | 316 | 3.0 | 3.0 | 0.00 | 0.00 | 0.05 | 60 | 1018.0 |
| 20260905175654 | 65 | 289 | 4.0 | 5.0 | 0.00 | 0.00 | 0.05 | 59 | 1018.0 |
| 20260905175154 | 65 | 322 | 0.0 | 1.0 | 0.00 | 0.00 | 0.05 | 59 | 1018.0 |
| 20260905174654 | 66 | 315 | 2.0 | 4.0 | 0.00 | 0.00 | 0.05 | 60 | 1018.0 |
| 20260905174154 | 66 | 321 | 4.0 | 6.0 | 0.00 | 0.00 | 0.05 | 58 | 1018.0 |
| 20260905173654 | 66 | 314 | 1.0 | 3.0 | 0.00 | 0.00 | 0.05 | 58 | 1018.0 |
| 20260905173154 | 66 | 317 | 3.0 | 6.0 | 0.00 | 0.00 | 0.05 | 58 | 1018.0 |
| 20260905172654 | 66 | 315 | 2.0 | 2.0 | 0.00 | 0.00 | 0.05 | 57 | 1018.0 |
| 20260905172154 | 67 | 282 | 1.0 | 2.0 | 0.00 | 0.00 | 0.05 | 59 | 1018.0 |
| 20260905171654 | 67 | 309 | 3.0 | 5.0 | 0.00 | 0.00 | 0.05 | 57 | 1018.0 |
| 20260905171154 | 67 | 301 | 2.0 | 4.0 | 0.00 | 0.00 | 0.05 | 56 | 1017.6 |
| 20260905170654 | 67 | 302 | 5.0 | 7.0 | 0.00 | 0.00 | 0.05 | 55 | 1017.6 |
| 20260905170154 | 67 | 326 | 3.0 | 6.0 | 0.00 | 0.00 | 0.05 | 55 | 1017.6 |
| 20260905165654 | 68 | 309 | 10.0 | 10.0 | 0.00 | 0.00 | 0.05 | 54 | 1017.6 |
| 20260905165154 | 68 | 326 | 5.0 | 7.0 | 0.00 | 0.00 | 0.05 | 54 | 1017.6 |
| 20260905164654 | 68 | 297 | 4.0 | 5.0 | 0.00 | 0.00 | 0.05 | 54 | 1017.6 |
| 20260905164154 | 68 | 326 | 4.0 | 4.0 | 0.00 | 0.00 | 0.05 | 54 | 1017.6 |
| 20260905163654 | 69 | 337 | 4.0 | 6.0 | 0.00 | 0.00 | 0.05 | 54 | 1017.3 |
| 20260905163154 | 69 | 332 | 3.0 | 4.0 | 0.00 | 0.00 | 0.05 | 54 | 1017.3 |
| 20260905162654 | 69 | 349 | 6.0 | 6.0 | 0.00 | 0.00 | 0.05 | 52 | 1017.3 |
| 20260905162154 | 69 | 265 | 3.0 | 9.0 | 0.00 | 0.00 | 0.05 | 51 | 1017.3 |
| 20260905161654 | 69 | 331 | 4.0 | 6.0 | 0.00 | 0.00 | 0.05 | 52 | 1017.3 |
| 20260905161154 | 69 | 297 | 4.0 | 5.0 | 0.00 | 0.00 | 0.05 | 51 | 1017.3 |
| 20260905160654 | 70 | 278 | 4.0 | 12.0 | 0.00 | 0.00 | 0.05 | 51 | 1017.3 |
| 20260905160154 | 71 | 338 | 8.0 | 17.0 | 0.00 | 0.00 | 0.05 | 49 | 1017.3 |
| 20260905155655 | 71 | 302 | 4.0 | 4.0 | 0.00 | 0.00 | 0.05 | 50 | 1017.3 |
| 20260905155154 | 70 | 290 | 6.0 | 6.0 | 0.00 | 0.00 | 0.05 | 50 | 1017.3 |
| 20260905154654 | 70 | 328 | 7.0 | 7.0 | 0.00 | 0.00 | 0.05 | 50 | 1017.3 |
| 20260905154154 | 71 | 346 | 11.0 | 14.0 | 0.00 | 0.00 | 0.05 | 49 | 1017.3 |
| 20260905153654 | 71 | 317 | 10.0 | 10.0 | 0.00 | 0.00 | 0.05 | 48 | 1017.3 |
| 20260905153154 | 71 | 339 | 7.0 | 9.0 | 0.00 | 0.00 | 0.05 | 47 | 1017.3 |
| 20260905152654 | 72 | 293 | 2.0 | 9.0 | 0.00 | 0.00 | 0.05 | 47 | 1017.3 |
| 20260905152154 | 72 | 272 | 8.0 | 12.0 | 0.00 | 0.00 | 0.05 | 48 | 1017.3 |
| 20260905151654 | 71 | 282 | 6.0 | 13.0 | 0.00 | 0.00 | 0.05 | 49 | 1017.3 |
| 20260905151154 | 70 | 321 | 8.0 | 10.0 | 0.00 | 0.00 | 0.05 | 50 | 1017.3 |
| 20260905150654 | 70 | 299 | 6.0 | 7.0 | 0.00 | 0.00 | 0.05 | 51 | 1017.3 |
| 20260905150154 | 70 | 333 | 13.0 | 17.0 | 0.00 | 0.00 | 0.05 | 49 | 1017.3 |
| 20260905145654 | 70 | 337 | 13.0 | 13.0 | 0.00 | 0.00 | 0.05 | 50 | 1017.3 |
| 20260905145153 | 70 | 285 | 8.0 | 10.0 | 0.00 | 0.00 | 0.05 | 50 | 1017.3 |
| 20260905144654 | 71 | 317 | 4.0 | 9.0 | 0.00 | 0.00 | 0.05 | 49 | 1017.3 |
| 20260905144154 | 72 | 307 | 11.0 | 11.0 | 0.00 | 0.00 | 0.05 | 47 | 1017.3 |
| 20260905143654 | 73 | 293 | 3.0 | 6.0 | 0.00 | 0.00 | 0.05 | 49 | 1017.3 |
| 20260905143154 | 71 | 339 | 9.0 | 10.0 | 0.00 | 0.00 | 0.05 | 48 | 1017.3 |
| 20260905142654 | 73 | 278 | 12.0 | 18.0 | 0.00 | 0.00 | 0.05 | 47 | 1017.3 |
| 20260905142154 | 73 | 266 | 8.0 | 10.0 | 0.00 | 0.00 | 0.05 | 49 | 1017.3 |
| 20260905141653 | 72 | 284 | 7.0 | 10.0 | 0.00 | 0.00 | 0.05 | 49 | 1017.3 |
| 20260905141154 | 72 | 340 | 11.0 | 17.0 | 0.00 | 0.00 | 0.05 | 49 | 1017.3 |
| 20260905140653 | 71 | 323 | 9.0 | 18.0 | 0.00 | 0.00 | 0.05 | 50 | 1017.3 |
| 20260905140154 | 71 | 335 | 17.0 | 20.0 | 0.00 | 0.00 | 0.05 | 50 | 1017.3 |
| 20260905135653 | 71 | 278 | 7.0 | 9.0 | 0.00 | 0.00 | 0.05 | 49 | 1017.3 |
| 20260905135154 | 71 | 37 | 11.0 | 12.0 | 0.00 | 0.00 | 0.05 | 50 | 1017.3 |
| 20260905134654 | 71 | 319 | 6.0 | 8.0 | 0.00 | 0.00 | 0.05 | 48 | 1017.3 |
| 20260905134153 | 71 | 321 | 8.0 | 11.0 | 0.00 | 0.00 | 0.05 | 49 | 1017.3 |
| 20260905133654 | 71 | 268 | 9.0 | 9.0 | 0.00 | 0.00 | 0.05 | 47 | 1017.3 |
| 20260905133153 | 71 | 329 | 13.0 | 13.0 | 0.00 | 0.00 | 0.05 | 47 | 1017.3 |
| 20260905132654 | 71 | 327 | 13.0 | 15.0 | 0.00 | 0.00 | 0.05 | 48 | 1017.3 |
| 20260905132154 | 71 | 330 | 9.0 | 11.0 | 0.00 | 0.00 | 0.05 | 47 | 1017.3 |
| 20260905131654 | 71 | 329 | 13.0 | 17.0 | 0.00 | 0.00 | 0.05 | 47 | 1017.3 |
| 20260905131154 | 73 | 282 | 7.0 | 11.0 | 0.00 | 0.00 | 0.05 | 45 | 1017.3 |
| 20260905130653 | 73 | 285 | 8.0 | 9.0 | 0.00 | 0.00 | 0.05 | 44 | 1017.3 |
| 20260905130154 | 71 | 325 | 6.0 | 6.0 | 0.00 | 0.00 | 0.05 | 46 | 1017.3 |
| 20260905125654 | 71 | 308 | 8.0 | 18.0 | 0.00 | 0.00 | 0.05 | 47 | 1017.3 |
| 20260905125154 | 72 | 314 | 8.0 | 10.0 | 0.00 | 0.00 | 0.05 | 45 | 1017.3 |
| 20260905124654 | 71 | 297 | 9.0 | 9.0 | 0.00 | 0.00 | 0.05 | 44 | 1017.3 |
| 20260905124153 | 71 | 306 | 11.0 | 14.0 | 0.00 | 0.00 | 0.05 | 45 | 1017.3 |
| 20260905123653 | 70 | 309 | 15.0 | 17.0 | 0.00 | 0.00 | 0.05 | 45 | 1017.3 |
| 20260905123153 | 69 | 306 | 8.0 | 17.0 | 0.00 | 0.00 | 0.05 | 46 | 1017.3 |
| 20260905122653 | 70 | 323 | 9.0 | 10.0 | 0.00 | 0.00 | 0.05 | 45 | 1017.3 |
| 20260905122153 | 70 | 294 | 14.0 | 21.0 | 0.00 | 0.00 | 0.05 | 44 | 1017.3 |
| 20260905121653 | 71 | 349 | 13.0 | 20.0 | 0.00 | 0.00 | 0.05 | 45 | 1017.3 |
| 20260905121153 | 71 | 343 | 14.0 | 20.0 | 0.00 | 0.00 | 0.05 | 44 | 1017.3 |
| 20260905120653 | 72 | 306 | 20.0 | 24.0 | 0.00 | 0.00 | 0.05 | 42 | 1017.3 |
| 20260905120153 | 74 | 333 | 10.0 | 15.0 | 0.00 | 0.00 | 0.05 | 42 | 1017.3 |
| 20260905115653 | 71 | 347 | 9.0 | 12.0 | 0.00 | 0.00 | 0.05 | 43 | 1017.3 |
| 20260905115153 | 73 | 272 | 9.0 | 10.0 | 0.00 | 0.00 | 0.05 | 42 | 1017.3 |
| 20260905114653 | 72 | 316 | 15.0 | 15.0 | 0.00 | 0.00 | 0.05 | 44 | 1017.3 |
| 20260905114153 | 72 | 302 | 17.0 | 23.0 | 0.00 | 0.00 | 0.05 | 45 | 1017.3 |
| 20260905113653 | 71 | 339 | 15.0 | 17.0 | 0.00 | 0.00 | 0.05 | 47 | 1017.3 |
| 20260905113154 | 71 | 274 | 5.0 | 7.0 | 0.00 | 0.00 | 0.05 | 50 | 1017.3 |
| 20260905112654 | 71 | 322 | 16.0 | 16.0 | 0.00 | 0.00 | 0.05 | 48 | 1017.3 |
| 20260905112153 | 73 | 325 | 13.0 | 17.0 | 0.00 | 0.00 | 0.05 | 44 | 1017.3 |
| 20260905111653 | 72 | 352 | 14.0 | 18.0 | 0.00 | 0.00 | 0.05 | 51 | 1017.3 |
| 20260905111153 | 71 | 317 | 6.0 | 10.0 | 0.00 | 0.00 | 0.05 | 52 | 1017.3 |
| 20260905110653 | 71 | 334 | 10.0 | 10.0 | 0.00 | 0.00 | 0.05 | 51 | 1017.3 |
| 20260905110154 | 72 | 319 | 10.0 | 12.0 | 0.00 | 0.00 | 0.05 | 47 | 1017.3 |
| 20260905105654 | 72 | 324 | 21.0 | 25.0 | 0.00 | 0.00 | 0.05 | 45 | 1017.3 |
| 20260905105153 | 72 | 308 | 11.0 | 13.0 | 0.00 | 0.00 | 0.05 | 50 | 1017.3 |
| 20260905104653 | 70 | 306 | 11.0 | 15.0 | 0.00 | 0.00 | 0.05 | 53 | 1017.3 |
| 20260905104153 | 69 | 323 | 6.0 | 16.0 | 0.00 | 0.00 | 0.05 | 57 | 1017.3 |
| 20260905103653 | 69 | 298 | 5.0 | 10.0 | 0.00 | 0.00 | 0.05 | 57 | 1017.3 |
| 20260905103154 | 69 | 323 | 13.0 | 17.0 | 0.00 | 0.00 | 0.05 | 57 | 1017.3 |
| 20260905102653 | 71 | 334 | 10.0 | 13.0 | 0.00 | 0.00 | 0.05 | 56 | 1017.3 |
| 20260905102153 | 70 | 297 | 7.0 | 10.0 | 0.00 | 0.00 | 0.05 | 56 | 1016.9 |
| 20260905101653 | 73 | 201 | 4.0 | 5.0 | 0.00 | 0.00 | 0.05 | 59 | 1016.9 |
| 20260905101153 | 71 | 312 | 13.0 | 14.0 | 0.00 | 0.00 | 0.05 | 56 | 1016.9 |
| 20260905100654 | 70 | 278 | 7.0 | 8.0 | 0.00 | 0.00 | 0.05 | 58 | 1016.9 |
| 20260905100153 | 69 | 270 | 10.0 | 15.0 | 0.00 | 0.00 | 0.05 | 61 | 1016.9 |
| 20260905095653 | 69 | 297 | 18.0 | 25.0 | 0.00 | 0.00 | 0.05 | 61 | 1017.3 |
| 20260905095153 | 68 | 320 | 10.0 | 10.0 | 0.00 | 0.00 | 0.05 | 62 | 1017.3 |
| 20260905094653 | 67 | 296 | 6.0 | 8.0 | 0.00 | 0.00 | 0.05 | 63 | 1016.9 |
| 20260905094153 | 67 | 289 | 11.0 | 18.0 | 0.00 | 0.00 | 0.05 | 65 | 1016.9 |
| 20260905093654 | 67 | 291 | 8.0 | 10.0 | 0.00 | 0.00 | 0.05 | 64 | 1017.3 |
| 20260905093153 | 69 | 290 | 11.0 | 13.0 | 0.00 | 0.00 | 0.05 | 62 | 1017.3 |
| 20260905092653 | 71 | 319 | 11.0 | 16.0 | 0.00 | 0.00 | 0.05 | 64 | 1017.3 |
| 20260905092153 | 71 | 310 | 4.0 | 6.0 | 0.00 | 0.00 | 0.05 | 63 | 1016.9 |
| 20260905091653 | 68 | 296 | 6.0 | 10.0 | 0.00 | 0.00 | 0.05 | 66 | 1016.9 |
| 20260905091153 | 69 | 312 | 7.0 | 10.0 | 0.00 | 0.00 | 0.05 | 67 | 1016.9 |
| 20260905090653 | 68 | 315 | 8.0 | 9.0 | 0.00 | 0.00 | 0.05 | 66 | 1016.9 |
| 20260905090153 | 67 | 295 | 9.0 | 13.0 | 0.00 | 0.00 | 0.05 | 67 | 1016.9 |
| 20260905085653 | 67 | 273 | 7.0 | 12.0 | 0.00 | 0.00 | 0.05 | 67 | 1017.3 |
| 20260905085153 | 67 | 275 | 13.0 | 14.0 | 0.00 | 0.00 | 0.05 | 69 | 1017.3 |
| 20260905084653 | 67 | 297 | 17.0 | 22.0 | 0.00 | 0.00 | 0.05 | 66 | 1017.3 |
| 20260905084153 | 67 | 313 | 7.0 | 9.0 | 0.00 | 0.00 | 0.05 | 67 | 1017.3 |
| 20260905083653 | 67 | 301 | 11.0 | 13.0 | 0.00 | 0.00 | 0.05 | 68 | 1017.3 |
| 20260905083153 | 65 | 279 | 7.0 | 9.0 | 0.00 | 0.00 | 0.05 | 72 | 1017.3 |
| 20260905082653 | 65 | 275 | 12.0 | 12.0 | 0.00 | 0.00 | 0.05 | 73 | 1017.3 |
| 20260905082153 | 65 | 247 | 4.0 | 5.0 | 0.00 | 0.00 | 0.05 | 73 | 1017.3 |
| 20260905081653 | 66 | 344 | 5.0 | 6.0 | 0.00 | 0.00 | 0.05 | 71 | 1017.3 |
| 20260905081153 | 67 | 306 | 4.0 | 6.0 | 0.00 | 0.00 | 0.05 | 71 | 1017.3 |
| 20260905080653 | 66 | 279 | 7.0 | 13.0 | 0.00 | 0.00 | 0.05 | 72 | 1017.3 |
| 20260905080153 | 65 | 294 | 11.0 | 11.0 | 0.00 | 0.00 | 0.05 | 72 | 1017.3 |
| 20260905075653 | 65 | 285 | 11.0 | 13.0 | 0.00 | 0.00 | 0.05 | 75 | 1017.3 |
| 20260905075153 | 64 | 298 | 6.0 | 7.0 | 0.00 | 0.00 | 0.05 | 78 | 1017.3 |
| 20260905074653 | 63 | 340 | 12.0 | 13.0 | 0.00 | 0.00 | 0.05 | 79 | 1017.3 |
| 20260905074153 | 62 | 327 | 9.0 | 9.0 | 0.00 | 0.00 | 0.05 | 81 | 1017.3 |
| 20260905073653 | 62 | 335 | 8.0 | 10.0 | 0.00 | 0.00 | 0.05 | 82 | 1016.9 |
| 20260905073153 | 62 | 322 | 2.0 | 6.0 | 0.00 | 0.00 | 0.05 | 84 | 1016.9 |
| 20260905072653 | 62 | 317 | 11.0 | 11.0 | 0.00 | 0.00 | 0.05 | 84 | 1016.9 |
| 20260905072153 | 62 | 331 | 6.0 | 10.0 | 0.00 | 0.00 | 0.05 | 86 | 1016.9 |
| 20260905071653 | 61 | 308 | 6.0 | 7.0 | 0.00 | 0.00 | 0.05 | 86 | 1016.9 |
| 20260905071153 | 61 | 312 | 8.0 | 12.0 | 0.00 | 0.00 | 0.05 | 87 | 1016.6 |
| 20260905070653 | 61 | 319 | 6.0 | 8.0 | 0.00 | 0.00 | 0.05 | 86 | 1016.6 |
| 20260905070153 | 60 | 295 | 6.0 | 10.0 | 0.00 | 0.00 | 0.05 | 87 | 1016.6 |
| 20260905065653 | 60 | 330 | 5.0 | 5.0 | 0.00 | 0.00 | 0.05 | 88 | 1016.6 |
| 20260905065153 | 60 | 312 | 8.0 | 13.0 | 0.00 | 0.00 | 0.05 | 88 | 1016.6 |
| 20260905064653 | 60 | 312 | 3.0 | 6.0 | 0.00 | 0.00 | 0.05 | 89 | 1016.6 |
| 20260905064153 | 60 | 315 | 4.0 | 7.0 | 0.00 | 0.00 | 0.05 | 88 | 1016.6 |
| 20260905063653 | 60 | 274 | 9.0 | 10.0 | 0.00 | 0.00 | 0.05 | 88 | 1015.9 |
| 20260905063153 | 61 | 332 | 6.0 | 7.0 | 0.00 | 0.00 | 0.05 | 89 | 1015.9 |
| 20260905062653 | 60 | 321 | 8.0 | 10.0 | 0.00 | 0.00 | 0.05 | 88 | 1015.9 |
| 20260905062153 | 60 | 353 | 5.0 | 6.0 | 0.00 | 0.00 | 0.05 | 89 | 1016.3 |
| 20260905061653 | 60 | 323 | 7.0 | 8.0 | 0.00 | 0.00 | 0.05 | 89 | 1016.3 |
| 20260905061153 | 60 | 334 | 4.0 | 5.0 | 0.00 | 0.00 | 0.05 | 90 | 1015.9 |
| 20260905060653 | 60 | 332 | 3.0 | 3.0 | 0.00 | 0.00 | 0.05 | 90 | 1015.9 |
| 20260905060154 | 60 | 303 | 6.0 | 7.0 | 0.00 | 0.00 | 0.05 | 90 | 1015.9 |
| 20260905055653 | 60 | 292 | 4.0 | 8.0 | 0.00 | 0.00 | 0.05 | 91 | 1015.9 |
| 20260905055153 | 60 | 281 | 3.0 | 3.0 | 0.00 | 0.00 | 0.05 | 91 | 1015.9 |
| 20260905054653 | 60 | 331 | 7.0 | 10.0 | 0.00 | 0.00 | 0.05 | 91 | 1015.2 |
| 20260905054153 | 60 | 304 | 5.0 | 8.0 | 0.00 | 0.00 | 0.05 | 92 | 1015.2 |
| 20260905053653 | 60 | 291 | 7.0 | 10.0 | 0.00 | 0.00 | 0.05 | 93 | 1015.2 |
| 20260905053153 | 60 | 342 | 3.0 | 3.0 | 0.00 | 0.00 | 0.05 | 93 | 1015.2 |
| 20260905052653 | 60 | 303 | 2.0 | 2.0 | 0.00 | 0.00 | 0.05 | 94 | 1015.2 |
| 20260905052153 | 60 | 314 | 1.0 | 2.0 | 0.00 | 0.00 | 0.05 | 94 | 1015.2 |
| 20260905051653 | 60 | 203 | 4.0 | 7.0 | 0.00 | 0.00 | 0.05 | 94 | 1015.2 |
| 20260905051153 | 60 | 315 | 3.0 | 3.0 | 0.05 | 0.00 | 0.05 | 94 | 1015.2 |
| 20260905050653 | 60 | 301 | 5.0 | 6.0 | 0.05 | 0.00 | 0.05 | 94 | 1015.2 |
| 20260905050153 | 60 | 338 | 4.0 | 4.0 | 0.00 | 0.00 | 0.05 | 94 | 1014.9 |
| 20260905045653 | 60 | 306 | 1.0 | 2.0 | 0.00 | 0.00 | 0.05 | 94 | 1014.9 |
| 20260905045153 | 60 | 310 | 5.0 | 8.0 | 0.05 | 0.00 | 0.05 | 93 | 1014.9 |
| 20260905044653 | 60 | 317 | 3.0 | 6.0 | 0.05 | 0.00 | 0.05 | 94 | 1014.9 |
| 20260905044153 | 60 | 333 | 4.0 | 6.0 | 0.00 | 0.00 | 0.03 | 94 | 1014.9 |
| 20260905043653 | 61 | 307 | 4.0 | 6.0 | 0.00 | 0.00 | 0.03 | 94 | 1014.6 |
| 20260905043153 | 61 | 279 | 3.0 | 3.0 | 0.00 | 0.00 | 0.03 | 94 | 1014.6 |
| 20260905042653 | 61 | 266 | 8.0 | 10.0 | 0.00 | 0.00 | 0.03 | 94 | 1014.6 |
| 20260905042153 | 61 | 281 | 4.0 | 6.0 | 0.00 | 0.00 | 0.03 | 94 | 1014.6 |
| 20260905041653 | 61 | 307 | 4.0 | 6.0 | 0.00 | 0.00 | 0.03 | 94 | 1014.6 |
| 20260905041153 | 61 | 280 | 5.0 | 6.0 | 0.00 | 0.00 | 0.03 | 94 | 1014.6 |
| 20260905040653 | 61 | 328 | 5.0 | 6.0 | 0.00 | 0.00 | 0.03 | 94 | 1014.6 |
| 20260905040153 | 61 | 291 | 6.0 | 6.0 | 0.00 | 0.00 | 0.03 | 94 | 1014.2 |
| 20260905035654 | 61 | 321 | 3.0 | 5.0 | 0.00 | 0.00 | 0.03 | 94 | 1014.2 |
| 20260905035153 | 61 | 283 | 1.0 | 3.0 | 0.00 | 0.00 | 0.03 | 95 | 1014.2 |
| 20260905034653 | 61 | 300 | 3.0 | 4.0 | 0.00 | 0.00 | 0.03 | 94 | 1014.2 |
| 20260905034153 | 61 | 297 | 6.0 | 8.0 | 0.00 | 0.00 | 0.03 | 94 | 1014.2 |
| 20260905033653 | 61 | 317 | 3.0 | 5.0 | 0.00 | 0.00 | 0.03 | 95 | 1013.9 |
| 20260905033153 | 61 | 323 | 4.0 | 6.0 | 0.00 | 0.00 | 0.03 | 95 | 1013.9 |
| 20260905032653 | 61 | 281 | 3.0 | 3.0 | 0.00 | 0.00 | 0.03 | 95 | 1013.9 |
| 20260905032153 | 61 | 308 | 2.0 | 3.0 | 0.00 | 0.00 | 0.03 | 95 | 1013.9 |
| 20260905031653 | 61 | 275 | 3.0 | 4.0 | 0.00 | 0.00 | 0.03 | 94 | 1013.9 |
| 20260905031153 | 61 | 317 | 2.0 | 2.0 | 0.00 | 0.00 | 0.03 | 95 | 1013.6 |
| 20260905030653 | 61 | 246 | 4.0 | 4.0 | 0.00 | 0.00 | 0.03 | 94 | 1013.6 |
| 20260905030153 | 61 | 314 | 2.0 | 3.0 | 0.00 | 0.00 | 0.03 | 94 | 1013.9 |
| 20260905025653 | 61 | 250 | 2.0 | 2.0 | 0.00 | 0.00 | 0.03 | 94 | 1013.9 |
| 20260905025153 | 61 | 280 | 3.0 | 3.0 | 0.00 | 0.00 | 0.03 | 94 | 1013.9 |
| 20260905024653 | 62 | 312 | 3.0 | 4.0 | 0.00 | 0.00 | 0.03 | 93 | 1013.9 |
| 20260905024153 | 61 | 276 | 8.0 | 10.0 | 0.00 | 0.00 | 0.03 | 93 | 1013.9 |
| 20260905023653 | 61 | 318 | 4.0 | 6.0 | 0.00 | 0.00 | 0.03 | 94 | 1013.9 |
| 20260905023153 | 62 | 299 | 5.0 | 6.0 | 0.00 | 0.00 | 0.03 | 93 | 1013.9 |
| 20260905022653 | 62 | 341 | 4.0 | 5.0 | 0.00 | 0.00 | 0.03 | 93 | 1013.9 |
| 20260905022153 | 62 | 241 | 3.0 | 5.0 | 0.00 | 0.00 | 0.03 | 94 | 1013.9 |
| 20260905021653 | 62 | 253 | 6.0 | 7.0 | 0.00 | 0.00 | 0.03 | 93 | 1013.9 |